Portada
METAR-TAF:

METAR-TAF

Aeroports :

Cuenca, Equador

latitud: 02-53-22S, longitud: 078-59-04W, altitud: 2532 m

Observació

L'informe es va fer fa 1 hora i 6 minuts, a les 12:00 UTC
Vent calma
Temperatura 13°C
Humitat 100%
Pressió 1026 hPa
Visibilitat: 8000 m
Núvols disperses a una alçada de 500 ft
Cel cobert a una alçada de 3000 ft
xàfecs en les proximitats

METAR: SECU 141200Z 00000KT 8000 VCSH SCT005 OVC030 13/13 Q1026

Hora: 08:06 (13:06 UTC)


TAF: manca

Observacions i pronòstics meteorològics de més de 4000 aeroports (METAR i TAF).

Les estacions disponibles són els punts grocs i vermells al mapa.

Posi el ratolí al punt desitjat per veure el nom de l'estació.

Feu clic per veure les observacions i els pronòstics meteorològics.

Per canviar el mapa: feu clic els botons verds amb una creu de color negre per apropar; al botó verd amb un guió per allunyar la imatge; o en les fletxes verdes per a mapes adjacents.


METAR-TAF: